• MPC Preparation (Info)

  • MPEC 2017-W44 : 2004 TL10

    The following Minor Planet Electronic Circular may be linked-to from your own Web pages, but must not otherwise be redistributed electronically.

    A form allowing access to any MPEC is at the bottom of this page.


    Read MPEC 2017-W43 Read MPEC 2017-W45


    M.P.E.C. 2017-W44                                Issued 2017 Nov. 17, 22:37 UT
    
         The Minor Planet Electronic Circulars contain information on unusual
             minor planets and routine data on comets.  They are published
        on behalf of Division F of the International Astronomical Union by the
              Minor Planet Center, Smithsonian Astrophysical Observatory,
                              Cambridge, MA 02138, U.S.A.
    
                 Prepared using the Tamkin Foundation Computer Network
    
                                  MPC@CFA.HARVARD.EDU
                URL https://www.minorplanetcenter.net/    ISSN 1523-6714
    
                                       2004 TL10
    
                               Revision to MPEC 2004-T37
    
    Additional Observations:
         K04T10L  C2017 11 16.11240 23 03 08.56 +12 37 26.0          20.3 GUEW044G96
         K04T10L  C2017 11 16.12570 23 03 13.33 +12 38 04.8          20.6 GUEW044G96
         K04T10L  C2017 11 16.14968 23 03 21.95 +12 39 15.7          20.4 GUEW044G96
         K04T10L  C2017 11 16.17356 23 03 30.61 +12 40 26.7          20.1 GUEW044I52
         K04T10L  C2017 11 16.17415 23 03 30.71 +12 40 27.8          20.5 GUEW044I52
         K04T10L  C2017 11 16.17474 23 03 30.94 +12 40 29.0          19.9 GUEW044I52
         K04T10L  C2017 11 16.17533 23 03 31.14 +12 40 30.9          20.8 GUEW044I52
         K04T10L  C2017 11 16.25985 23 04 01.57 +12 44 38.1          20.5 GUEW044I52
         K04T10L  C2017 11 16.26248 23 04 02.56 +12 44 45.2          20.5 GUEW044I52
         K04T10L  C2017 11 16.26610 23 04 03.83 +12 44 56.3          21.5 GUEW044I52
         K04T10L  C2017 11 16.26943 23 04 05.07 +12 45 05.7          21.2 GUEW044I52
         K04T10L KC2017 11 16.86539 23 07 42.63 +13 13 37.0                UEW044J95
         K04T10L KC2017 11 16.87567 23 07 46.25 +13 14 07.2                UEW044J95
         K04T10L KC2017 11 16.88600 23 07 49.91 +13 14 36.0          20.8 GUEW044J95
    
    Observer details:
    G96 Mt. Lemmon Survey.  Observer A. D. Grauer.  Measurers E. J. Christensen,
        D. C. Fuls, A. R. Gibbs, A. D. Grauer, J. A. Johnson, R. A. Kowalski,
        S. M. Larson, G. J. Leonard, R. G. Matheny, R. L. Seaman, F. C. Shelly.
        1.5-m reflector + 10K CCD.
    I52 Steward Observatory, Mt. Lemmon Station.  Observer G. J. Leonard.
        Measurers E. J. Christensen, D. C. Fuls, A. R. Gibbs, A. D. Grauer,
        J. A. Johnson, R. A. Kowalski, S. M. Larson, G. J. Leonard, R. G. Matheny,
        R. L. Seaman, F. C. Shelly.  1.0-m reflector + CCD.
    J95 Great Shefford.  Observer P. Birtwhistle.  0.40-m f/6.0 Schmidt-Cassegrain
        + CCD.
    
    First and last observations above in comparison with prediction:
    Residuals in seconds of arc (or two decimals in degrees), reference and Delta-T
    171116 G96 4.40+ 3.83+    171116 J95 4.34+ 3.76+    MPO 74368   -1.9 day
    
    Orbital elements:
    2004 TL10                                           PHA, Earth MOID = 0.0123 AU
    Epoch 2017 Sept. 4.0 TT = JDT 2458000.5                 MPC
    M 355.43518              (2000.0)            P               Q
    n   0.22835413     Peri.  325.48652     +0.90869127     +0.41647873
    a   2.6509211      Node    10.02495     -0.33608216     +0.77063479
    e   0.6572032      Incl.    9.50100     -0.24764685     +0.48235618
    P   4.32           H   21.3           G   0.15           U   1
    Residuals in seconds of arc
    041008 704  0.2-  1.0+    041009 854  0.1+  0.3+    041108 734  0.4+  0.2-
    041008 704  0.0   0.4+    041009 704  0.3-  0.2+    041108 734  0.5+  0.6-
    041008 704  0.6-  0.6+    041010 704  0.4-  0.1+    041108 734  0.7-  1.5-
    041008 704  1.3+  0.4-    041010 704  0.1-  0.6+    041109 696  0.3-  0.3+
    041009 J95 (1.5+  2.0+)   041010 704  0.4-  0.2+    041109 696  0.1-  0.1+
    041009 J95  0.9-  1.1-    041010 734  1.3-  0.1+    041110 F65  0.0   0.1+
    041009 176  0.6+  0.4-    041010 734  0.7+  0.2-    041110 F65  0.1+  0.3+
    041009 176  0.5+  0.2-    041010 704  0.3-  0.1+    041110 F65  0.2-  0.1+
    041009 176  0.4+  0.1-    041010 734  0.3-  0.1+    041110 F65  0.1-  0.2+
    041009 176  0.2+  0.2+    041010 704  0.1+  0.1-    041110 F65  0.1+  0.3+
    041009 649  0.7-  0.8-    041010 704  0.7+  0.8-    041120 198  0.4-  0.9+
    041009 649  0.3-  0.7+    041010 704  0.0   0.3-    041120 198  0.3-  0.8+
    041009 649  0.3+  0.2+    041010 704  0.3+  0.1+    041120 941  0.6+  0.3+
    041009 649  0.4+  0.3+    041010 704  0.3+  0.2-    041120 198  0.2-  0.5+
    041009 649  0.2-  0.0     041010 704  0.2+  0.1+    041120 941  0.5+  0.2+
    041009 H06  0.4+  0.2+    041012 J92  0.2+  0.7+    041120 941  0.6+  0.4+
    041009 G90  0.1-  0.5+    041013 246  0.3+  0.1+    041120 198  0.2+  0.5+
    041009 H06  0.1-  0.4+    041013 246  0.6+  0.0     041120 941  0.2+  0.2+
    041009 G90  0.1-  0.3+    041013 246  0.3+  0.4+    041120 941  0.2+  0.1-
    041009 H06  0.4+  0.7+    041013 246  0.6+  0.1-    171116 G96  0.2-  0.2+
    041009 G90  0.4-  0.9+    041013 246  0.7+  0.1+    171116 G96  0.3-  0.3-
    041009 H06  0.4+  0.8-    041013 246  0.5+  0.2+    171116 G96  0.1-  0.1-
    041009 H06  0.7+  0.1+    041013 246  0.3+  0.2-    171116 I52  1.2+  0.7+
    041009 H06  0.2+  0.2-    041013 246  0.6+  0.4-    171116 I52  0.5-  0.1+
    041009 704  0.0   0.3+    041021 J95  0.0   0.4+    171116 I52  0.2-  0.4-
    041009 711  0.7+  1.0-    041021 J95  0.2-  0.3+    171116 I52  0.4-  0.3-
    041009 711 (1.6+  0.0 )   041021 J95  0.3-  0.1-    171116 I52  0.3-  0.1+
    041009 711  0.1+  0.5-    041030 448  0.4-  0.5-    171116 I52  0.3+  0.4-
    041009 704  0.2+  0.6+    041030 448  0.9-  0.1-    171116 I52  0.2-  0.2+
    041009 704  0.2+  0.3+    041030 448 (1.6-  1.2-)   171116 I52  0.3+  0.1-
    041009 704  0.0   0.4+    041107 649  0.2-  0.1+    171116 J95  0.5+  1.0-
    041009 704  0.1+  0.3+    041107 649  0.3+  0.0     171116 J95  0.3+  0.1+
    041009 704  0.5-  0.2-    041107 649  0.5-  0.7+    171116 J95  0.4+  0.3-
    041009 704  0.7-  0.1+    041107 649  0.3-  0.1+
    041009 854  0.0   0.3+    041108 734 (1.7+  0.3+)
    
    Ephemeris:
    2004 TL10                a,e,i = 2.65, 0.66, 10                  q = 0.9087
    Date    TT    R. A. (2000) Decl.     Delta      r     Elong.  Phase     V
    2017 10 18    18 51 45.0 -23 28 21   0.2660  0.9731    77.3    87.2    21.4
    ...
    2017 11 02    21 15 36.8 -03 43 08   0.2503  1.0663   100.4    66.2    20.8
    ...
    2017 11 10    22 21 46.9 +06 42 40   0.2864  1.1268   111.4    54.9    20.8
    ...
    2017 11 16    23 02 26.7 +12 31 59   0.3301  1.1756   116.9    48.6    21.1
    2017 11 17    23 08 31.1 +13 20 12   0.3385  1.1840   117.5    47.8    21.1
    2017 11 18    23 14 24.2 +14 05 49   0.3471  1.1924   118.2    47.0    21.2
    ...
    2017 11 24    23 46 10.8 +17 51 35   0.4044  1.2439   120.8    43.0    21.5
    ...
    2017 12 02    00 20 54.2 +21 15 56   0.4925  1.3149   122.0    39.5    21.9
    ...
    2017 12 17    01 10 55.8 +24 52 53   0.6860  1.4516   119.7    36.1    22.8
    
    A. U. Tomatic                (C) Copyright 2017 MPC           M.P.E.C. 2017-W44
    

    Read MPEC 2017-W43 Read MPEC 2017-W45


    MPEC number:

    Enter an MPEC number in one of the following forms:

    • 1997-B01 (the full form)
    • J97B01 (the packed version of the full form)
    • B01 (the abbreviated form)